9HTOM LMML-LMML

Flight info

Callsign 9HTOM
Flight time N/A
Altitude 2000
Route TRAFFIC CIRCUITS
Aircraft AEST/L-SDFGIRY/S

Departure

Time 2026-05-01 13:39
Airport Malta International Airport (LMML)

Arrival

Time N/A
Airport Malta International Airport (LMML)
Time Latitude Longitude Altitude Speed Heading
2026-05-01 13:39 35.86100 14.48299 375 ft 102 kts 53°
2026-05-01 13:39 35.86544 14.49038 573 ft 111 kts 51°
2026-05-01 13:39 35.87070 14.49811 738 ft 124 kts 47°
2026-05-01 13:39 35.87707 14.50508 1001 ft 120 kts 36°
2026-05-01 13:40 35.88483 14.50914 1201 ft 127 kts 28°
2026-05-01 13:40 35.89224 14.51532 1362 ft 131 kts 52°
2026-05-01 13:40 35.89649 14.52544 1522 ft 137 kts 71°
2026-05-01 13:40 35.89804 14.53702 1687 ft 136 kts 91°
2026-05-01 13:41 35.89494 14.54831 1770 ft 145 kts 117°
2026-05-01 13:41 35.88820 14.55828 1715 ft 161 kts 128°
2026-05-01 13:41 35.87964 14.56717 1769 ft 162 kts 142°
2026-05-01 13:41 35.86919 14.57260 1836 ft 169 kts 162°
2026-05-01 13:42 35.85696 14.57303 1842 ft 182 kts 180°
2026-05-01 13:42 35.84492 14.56877 1974 ft 178 kts 200°
2026-05-01 13:42 35.83423 14.56043 1769 ft 190 kts 204°
2026-05-01 13:42 35.82138 14.55501 1692 ft 190 kts 197°
2026-05-01 13:43 35.81032 14.54724 1794 ft 181 kts 216°
2026-05-01 13:43 35.80262 14.53497 1727 ft 182 kts 245°
2026-05-01 13:43 35.79989 14.51959 1566 ft 194 kts 267°
2026-05-01 13:43 35.80050 14.50324 1636 ft 186 kts 278°
2026-05-01 13:44 35.80235 14.48730 1603 ft 191 kts 283°
2026-05-01 13:44 35.80569 14.47157 1689 ft 189 kts 291°
2026-05-01 13:44 35.81052 14.45651 1740 ft 192 kts 287°
2026-05-01 13:44 35.81244 14.44554 1751 ft 195 kts 284°
2026-05-01 13:45 35.81537 14.42985 2125 ft 176 kts 288°
2026-05-01 13:45 35.81829 14.41567 2445 ft 163 kts 285°
2026-05-01 13:45 35.82046 14.40265 2787 ft 151 kts 285°
2026-05-01 13:45 35.82260 14.39033 3070 ft 143 kts 290°
2026-05-01 13:46 35.82554 14.37889 3338 ft 137 kts 292°
2026-05-01 13:46 35.82836 14.36781 3570 ft 134 kts 292°
2026-05-01 13:46 35.83088 14.35685 3771 ft 131 kts 292°
2026-05-01 13:46 35.83339 14.34617 3973 ft 128 kts 292°
2026-05-01 13:47 35.83571 14.33605 4150 ft 125 kts 292°
2026-05-01 13:47 35.84012 14.32699 4441 ft 123 kts 320°
2026-05-01 13:47 35.84613 14.31970 4721 ft 120 kts 321°
2026-05-01 13:47 35.85219 14.31260 4990 ft 120 kts 321°
2026-05-01 13:48 35.85857 14.30532 5085 ft 133 kts 321°
2026-05-01 13:48 35.86599 14.29694 5002 ft 155 kts 321°
2026-05-01 13:48 35.87447 14.28758 4959 ft 169 kts 322°
2026-05-01 13:48 35.88333 14.27774 4967 ft 174 kts 322°
2026-05-01 13:49 35.89245 14.26776 4966 ft 180 kts 322°
2026-05-01 13:49 35.90333 14.26032 4976 ft 180 kts 350°
2026-05-01 13:49 35.91596 14.25966 4953 ft 185 kts
2026-05-01 13:49 35.92925 14.26034 4800 ft 192 kts
2026-05-01 13:50 35.94295 14.26108 4528 ft 202 kts
2026-05-01 13:50 35.95710 14.26176 4230 ft 209 kts
2026-05-01 13:50 35.97190 14.26238 3936 ft 215 kts
2026-05-01 13:50 35.98714 14.26281 3606 ft 222 kts
2026-05-01 13:51 36.00204 14.25796 3317 ft 224 kts 333°
2026-05-01 13:51 36.01490 14.24666 3034 ft 231 kts 324°
2026-05-01 13:51 36.02743 14.23384 2759 ft 235 kts 322°
2026-05-01 13:51 36.03992 14.22054 2512 ft 238 kts 323°
2026-05-01 13:52 36.05245 14.20704 2270 ft 239 kts 325°
2026-05-01 13:52 36.06726 14.19817 2027 ft 236 kts 351°
2026-05-01 13:52 36.08302 14.19882 2070 ft 221 kts 19°
2026-05-01 13:52 36.09597 14.20795 2081 ft 210 kts 46°
2026-05-01 13:53 36.10358 14.22285 2107 ft 203 kts 73°
2026-05-01 13:53 36.09828 14.25206 2096 ft 168 kts 129°
2026-05-01 13:53 36.09014 14.26181 2087 ft 163 kts 132°
2026-05-01 13:54 36.08204 14.27129 2088 ft 157 kts 132°
2026-05-01 13:54 36.07413 14.28039 2091 ft 152 kts 133°
2026-05-01 13:54 36.06637 14.28898 2089 ft 148 kts 133°
2026-05-01 13:54 36.05860 14.29768 1991 ft 155 kts 133°
2026-05-01 13:55 36.05071 14.30655 2024 ft 149 kts 132°
2026-05-01 13:55 36.04296 14.31491 2056 ft 147 kts 133°
2026-05-01 13:55 36.03522 14.32319 2059 ft 148 kts 132°
2026-05-01 13:55 36.02747 14.33167 2044 ft 149 kts 133°
2026-05-01 13:56 36.01977 14.34023 2040 ft 147 kts 133°
2026-05-01 13:56 36.01222 14.34848 2078 ft 144 kts 133°
2026-05-01 13:56 36.00460 14.35687 2041 ft 147 kts 133°
2026-05-01 13:56 35.99705 14.36525 2043 ft 144 kts 133°
2026-05-01 13:57 35.98956 14.37358 2072 ft 147 kts 133°
2026-05-01 13:57 35.98194 14.38219 2038 ft 148 kts 133°
2026-05-01 13:57 35.97431 14.39054 2045 ft 145 kts 133°
2026-05-01 13:57 35.96710 14.39856 2046 ft 143 kts 133°
2026-05-01 13:58 35.96383 14.40215 2073 ft 140 kts 133°
2026-05-01 13:58 35.95642 14.41013 2035 ft 141 kts 133°
2026-05-01 13:58 35.94902 14.41789 2043 ft 139 kts 133°
2026-05-01 13:58 35.94162 14.42571 2048 ft 141 kts 133°
2026-05-01 13:59 35.93422 14.43378 2041 ft 143 kts 133°
2026-05-01 13:59 35.92674 14.44201 2035 ft 143 kts 133°
2026-05-01 13:59 35.91919 14.45014 2038 ft 145 kts 133°
2026-05-01 13:59 35.91174 14.45854 2043 ft 145 kts 126°
2026-05-01 14:00 35.90769 14.46940 2054 ft 137 kts 95°
2026-05-01 14:00 35.90664 14.48029 2052 ft 130 kts 93°
2026-05-01 14:00 35.90569 14.49150 2096 ft 130 kts 93°
2026-05-01 14:00 35.90475 14.50268 2066 ft 132 kts 93°
2026-05-01 14:01 35.90384 14.51414 2045 ft 134 kts 92°
2026-05-01 14:01 35.90304 14.52557 2045 ft 133 kts 92°
2026-05-01 14:01 35.90233 14.53679 2037 ft 129 kts 92°
2026-05-01 14:01 35.90170 14.54765 2043 ft 126 kts 92°
2026-05-01 14:02 35.90089 14.55833 2045 ft 124 kts 93°
2026-05-01 14:02 35.90009 14.56899 2051 ft 124 kts 92°
2026-05-01 14:02 35.89886 14.57944 2040 ft 121 kts 109°
2026-05-01 14:02 35.89297 14.58653 2040 ft 125 kts 155°
2026-05-01 14:03 35.88452 14.58658 2058 ft 133 kts 184°
2026-05-01 14:03 35.87546 14.58430 2068 ft 137 kts 185°
2026-05-01 14:03 35.86591 14.58191 2056 ft 140 kts 185°
2026-05-01 14:03 35.85629 14.57920 2023 ft 145 kts 186°
2026-05-01 14:04 35.84630 14.57638 2027 ft 150 kts 186°
2026-05-01 14:04 35.83607 14.57360 2028 ft 149 kts 186°
2026-05-01 14:04 35.82594 14.57083 2029 ft 150 kts 186°
2026-05-01 14:04 35.81918 14.56892 1996 ft 151 kts 194°
2026-05-01 14:05 35.80911 14.55644 1776 ft 174 kts 251°
2026-05-01 14:05 35.81090 14.54125 1396 ft 184 kts 297°
2026-05-01 14:05 35.81681 14.52857 1097 ft 150 kts 311°
2026-05-01 14:05 35.82264 14.51992 695 ft 118 kts 322°
2026-05-01 14:06 35.82813 14.51339 499 ft 104 kts 324°
2026-05-01 14:06 35.83313 14.50743 342 ft 97 kts 326°
2026-05-01 14:06 35.83780 14.50179 257 ft 88 kts 324°
2026-05-01 14:06 35.84184 14.49690 251 ft 78 kts 316°
2026-05-01 14:07 35.84607 14.49141 277 ft 98 kts 319°
2026-05-01 14:07 35.85073 14.48518 398 ft 104 kts 319°
2026-05-01 14:08 35.85322 14.48188 405 ft 121 kts 320°
2026-05-01 14:08 35.86088 14.47902 667 ft 125 kts 39°
2026-05-01 14:08 35.86426 14.48821 938 ft 125 kts 84°
2026-05-01 14:08 35.86439 14.49977 1082 ft 142 kts 82°
2026-05-01 14:09 35.86867 14.51042 1128 ft 161 kts 25°
2026-05-01 14:09 35.87887 14.50620 1291 ft 179 kts 300°
2026-05-01 14:09 35.87595 14.49090 1246 ft 201 kts 232°
2026-05-01 14:09 35.86719 14.47679 1149 ft 212 kts 229°
2026-05-01 14:10 35.85782 14.46267 1128 ft 218 kts 225°
2026-05-01 14:10 35.84761 14.44847 1114 ft 221 kts 230°
2026-05-01 14:10 35.83929 14.43272 1126 ft 218 kts 239°
2026-05-01 14:10 35.83113 14.41687 1101 ft 222 kts 227°
2026-05-01 14:11 35.81909 14.40448 925 ft 229 kts 209°
2026-05-01 14:11 35.79080 14.39500 778 ft 210 kts 154°
2026-05-01 14:11 35.78261 14.40811 803 ft 169 kts 91°
2026-05-01 14:12 35.78636 14.41845 1227 ft 133 kts 34°
2026-05-01 14:12 35.79530 14.42182 1226 ft 132 kts 14°
2026-05-01 14:12 35.80434 14.42296 1283 ft 130 kts
2026-05-01 14:12 35.81329 14.42352 1314 ft 130 kts 12°
2026-05-01 14:13 35.82193 14.42673 1239 ft 131 kts 31°
2026-05-01 14:13 35.82684 14.43091 1109 ft 127 kts 44°
2026-05-01 14:13 35.83426 14.43943 842 ft 85 kts 47°
2026-05-01 14:13 35.83774 14.44419 681 ft 72 kts 48°
2026-05-01 14:14 35.84068 14.44873 566 ft 62 kts 50°
2026-05-01 14:14 35.84326 14.45311 481 ft 67 kts 52°
2026-05-01 14:14 35.84607 14.45780 404 ft 66 kts 53°
2026-05-01 14:14 35.84866 14.46228 313 ft 61 kts 52°
2026-05-01 14:15 35.85092 14.46611 303 ft 53 kts 55°
2026-05-01 14:15 35.85369 14.47116 332 ft 81 kts 50°
2026-05-01 14:15 35.85624 14.47727 419 ft 88 kts 105°
2026-05-01 14:15 35.85197 14.48380 487 ft 102 kts 130°
2026-05-01 14:16 35.84658 14.49030 711 ft 125 kts 125°
2026-05-01 14:16 35.84247 14.50042 1071 ft 136 kts 89°
2026-05-01 14:16 35.84433 14.51225 1343 ft 144 kts 79°
2026-05-01 14:16 35.84532 14.52659 1146 ft 182 kts 81°
2026-05-01 14:17 35.85105 14.54011 1262 ft 189 kts 50°
2026-05-01 14:17 35.86283 14.54746 1252 ft 185 kts 13°
2026-05-01 14:17 35.87543 14.54580 966 ft 190 kts 337°
2026-05-01 14:17 35.88230 14.53309 1038 ft 180 kts 291°
2026-05-01 14:18 35.88547 14.51859 1047 ft 169 kts 280°
2026-05-01 14:18 35.88225 14.50520 1002 ft 165 kts 241°
2026-05-01 14:18 35.87612 14.49313 977 ft 164 kts 237°
2026-05-01 14:18 35.87183 14.48558 993 ft 162 kts 233°
2026-05-01 14:19 35.86399 14.47001 981 ft 162 kts 249°
2026-05-01 14:19 35.86049 14.45684 1032 ft 161 kts 252°
2026-05-01 14:19 35.85559 14.44431 1010 ft 164 kts 239°
2026-05-01 14:19 35.84876 14.43471 1186 ft 125 kts 189°
2026-05-01 14:20 35.84314 14.43991 1023 ft 114 kts 102°
2026-05-01 14:20 35.84547 14.45631 455 ft 86 kts 56°
2026-05-01 14:20 35.84843 14.46181 323 ft 69 kts 57°
2026-05-01 14:21 35.85094 14.46620 304 ft 59 kts 55°
2026-05-01 14:21 35.85392 14.47128 277 ft 82 kts 58°
2026-05-01 14:21 35.85832 14.47595 369 ft 92 kts
2026-05-01 14:22 35.86671 14.46274 601 ft 124 kts 270°
2026-05-01 14:22 35.86498 14.45196 687 ft 136 kts 242°
2026-05-01 14:22 35.85922 14.44220 922 ft 143 kts 229°
2026-05-01 14:22 35.85256 14.43295 1284 ft 146 kts 223°
2026-05-01 14:23 35.84461 14.42505 1498 ft 152 kts 195°
2026-05-01 14:23 35.83690 14.43036 1497 ft 136 kts 108°
2026-05-01 14:23 35.83804 14.44141 1039 ft 134 kts 64°
2026-05-01 14:23 35.84201 14.45002 711 ft 101 kts 60°
2026-05-01 14:24 35.84563 14.45666 474 ft 86 kts 59°
2026-05-01 14:24 35.84878 14.46235 319 ft 75 kts 61°
2026-05-01 14:24 35.85152 14.46714 301 ft 61 kts 59°
2026-05-01 14:24 35.85458 14.47214 300 ft 81 kts 58°
2026-05-01 14:25 35.85935 14.47348 451 ft 83 kts 329°
2026-05-01 14:25 35.85978 14.46618 551 ft 102 kts 248°
2026-05-01 14:25 35.85649 14.45804 746 ft 108 kts 233°
2026-05-01 14:25 35.85206 14.45047 933 ft 111 kts 224°
2026-05-01 14:26 35.84904 14.44531 987 ft 116 kts 240°
2026-05-01 14:26 35.84392 14.42663 1224 ft 119 kts 258°
2026-05-01 14:26 35.84330 14.41654 1364 ft 117 kts 269°
2026-05-01 14:27 35.84363 14.40688 1616 ft 115 kts 273°
2026-05-01 14:27 35.84380 14.39686 1797 ft 115 kts 271°
2026-05-01 14:27 35.84373 14.38695 1922 ft 121 kts 270°
2026-05-01 14:28 35.83445 14.37334 1215 ft 111 kts 136°
2026-05-01 14:28 35.83080 14.38053 1109 ft 94 kts 105°
2026-05-01 14:28 35.82942 14.38798 1045 ft 88 kts 93°
2026-05-01 14:28 35.82909 14.39537 938 ft 83 kts 82°
2026-05-01 14:29 35.82951 14.40239 873 ft 81 kts 83°
2026-05-01 14:29 35.82996 14.40938 820 ft 82 kts 81°
2026-05-01 14:30 35.83512 14.42931 692 ft 81 kts 70°
2026-05-01 14:30 35.83736 14.43578 666 ft 83 kts 70°
2026-05-01 14:30 35.83956 14.44247 628 ft 82 kts 70°
2026-05-01 14:31 35.84492 14.45544 430 ft 83 kts 59°
2026-05-01 14:31 35.84790 14.46086 318 ft 66 kts 60°
2026-05-01 14:31 35.85026 14.46493 305 ft 66 kts 51°
2026-05-01 14:31 35.85345 14.47067 286 ft 90 kts 54°
2026-05-01 14:32 35.85800 14.47541 510 ft 94 kts
2026-05-01 14:32 35.86452 14.47055 793 ft 131 kts 317°
2026-05-01 14:32 35.86727 14.46001 1156 ft 144 kts 237°
2026-05-01 14:32 35.85990 14.45106 1270 ft 169 kts 244°
2026-05-01 14:33 35.85468 14.43656 1310 ft 199 kts 236°
2026-05-01 14:33 35.84690 14.42177 1356 ft 209 kts 237°
2026-05-01 14:33 35.84136 14.40470 1410 ft 218 kts 251°
2026-05-01 14:33 35.83632 14.38774 1910 ft 209 kts 239°
2026-05-01 14:34 35.82827 14.37275 2225 ft 209 kts 232°
2026-05-01 14:34 35.82154 14.35696 2404 ft 213 kts 250°
2026-05-01 14:34 35.81561 14.34055 2725 ft 212 kts 233°
2026-05-01 14:34 35.80246 14.33490 2809 ft 213 kts 156°
2026-05-01 14:35 35.79369 14.34741 3201 ft 193 kts 94°
2026-05-01 14:35 35.79718 14.36316 3218 ft 197 kts 62°
2026-05-01 14:35 35.80360 14.37880 2714 ft 216 kts 62°
2026-05-01 14:35 35.80703 14.39624 2067 ft 209 kts 82°
2026-05-01 14:36 35.81293 14.40775 2434 ft 145 kts
2026-05-01 14:36 35.82339 14.40834 2159 ft 150 kts 22°
2026-05-01 14:36 35.82775 14.41608 2400 ft 112 kts 95°
2026-05-01 14:36 35.82609 14.42593 2116 ft 113 kts 98°
2026-05-01 14:37 35.82564 14.43445 1988 ft 101 kts 61°
2026-05-01 14:37 35.83162 14.44004 1492 ft 122 kts 17°
2026-05-01 14:37 35.84032 14.44295 1235 ft 130 kts 34°
2026-05-01 14:37 35.84374 14.45196 1041 ft 128 kts 91°
2026-05-01 14:38 35.84546 14.46296 747 ft 134 kts 65°
2026-05-01 14:38 35.85047 14.47230 515 ft 130 kts 43°
2026-05-01 14:38 35.85893 14.47589 371 ft 126 kts 24°
2026-05-01 14:38 35.86589 14.48056 399 ft 99 kts 46°
2026-05-01 14:39 35.86696 14.48639 445 ft 70 kts 131°
2026-05-01 14:39 35.86132 14.48773 294 ft 99 kts 176°
2026-05-01 14:39 35.85998 14.48725 283 ft 97 kts 211°